Retour au catalogue

STARLINK-6129

ActifCommunicationsVLEO
NORAD 57116·PAYLOAD·🇺🇸 United States

Lancé Jun 23, 2023 depuis Cape Canaveral Space Force Station

Loading…

Prochains Passages (prochaines 24 heures)

TLE

FraisSource: CelesTrak SupGP

Époque: Sep 15, 2026, 02:40 UTC

1 57116C 23090R   26258.11159722  .00012528  00000+0  45373-3 0  2585
2 57116  43.0017 291.4803 0001776 269.5043 167.2927 15.27574757    19

Suivez STARLINK-6129 en temps réel avec AllMySat

Download on the App Store